Hawarden, United Kingdom

4:59 PM BST on June 27, 2017 (GMT +0100)
Hawarden

Weather History for EGNR - December, 2012

Change the Weather History Date:

Thursday, December 6, 2012

  Actual Average (EGGP) Record (EGGP)
Temperature  
Mean Temperature 34 °F -  
Max Temperature 42 °F 44 °F 57 °F (2015)
Min Temperature 26 °F 36 °F 23 °F (2010)
Degree Days  
Heating Degree Days 31    
Moisture  
Dew Point 34 °F    
Average Humidity 93    
Maximum Humidity 100    
Minimum Humidity 83    
Precipitation  
Precipitation 0.01 in - - ()
Sea Level Pressure  
Sea Level Pressure 29.73 in    
Wind  
Wind Speed 8 mph ()    
Max Wind Speed 18 mph    
Max Gust Speed 26 mph    
Visibility 7.9 miles    
Events Rain    
Averages and records for this station are not official NWS values.
T = Trace of Precipitation, MM = Missing Value Source: Averaged Metar Reports

Daily Weather History Graph

Daily Weather History Graph

Search for Another Location

Airport or City:

Trip Planner

Search our weather history database for the weather conditions in past years. The results will help you decide how hot, cold, wet, or windy it might be!

Date:

Astronomy

Dec. 06, 2012 Rise Set
Actual Time 8:10 AM GMT 3:55 PM GMT
Civil Twilight 7:28 AM GMT 4:37 PM GMT
Nautical Twilight 6:44 AM GMT 5:21 PM GMT
Astronomical Twilight 6:02 AM GMT 6:03 PM GMT
Moon No Moon Rise 12:09 PM GMT (12/6)
Length of Visible Light 9h 08m
Length of Day
7h 44m
Waning Gibbous, 52% of the Moon is Illuminated
Dec 6
Waning Gibbous
Dec 6
Last Quarter
Dec 13
New
Dec 20
First Quarter
Dec 28
Full

Hourly Weather History & Observations

Time (GMT) Temp. Windchill Dew Point Humidity Pressure Visibility Wind Dir Wind Speed Gust Speed Precip Events Conditions
2:50 AM 26 °F - 26 °F 98% 30.04 in 10 mi SE 5.8 mph - -   Partly Cloudy
5:50 AM 27 °F - 26 °F 96% 29.99 in 17 mi East 2.3 mph - -  
6:20 AM 28.4 °F 21.2 °F 26.6 °F 93% 29.98 in 6.2 mi NNW 6.9 mph - N/A   Partly Cloudy
6:50 AM 30.2 °F 23.4 °F 28.4 °F 93% 29.98 in 6.2 mi SSE 6.9 mph - N/A   Partly Cloudy
7:20 AM 30.2 °F 24.3 °F 28.4 °F 93% 29.95 in 6.2 mi SSE 5.8 mph - N/A   Partly Cloudy
7:50 AM 32.0 °F 25.6 °F 30.2 °F 93% 29.95 in 6.2 mi SSE 6.9 mph - N/A   Partly Cloudy
8:20 AM 30.2 °F 24.3 °F 28.4 °F 93% 29.95 in 6.2 mi SSE 5.8 mph - N/A   Partly Cloudy
8:50 AM 31 °F - 30 °F 93% 29.93 in 19 mi SSE 9.2 mph - -  
8:50 AM 32.0 °F 24.2 °F 30.2 °F 93% 29.92 in 6.2 mi SSE 9.2 mph - N/A   Partly Cloudy
9:20 AM 32.0 °F 26.4 °F 30.2 °F 93% 29.92 in - South 5.8 mph - N/A   Clear
9:50 AM 33.8 °F 26.4 °F 32.0 °F 93% 29.89 in - South 9.2 mph - N/A   Clear
10:20 AM 33.8 °F 27.0 °F 32.0 °F 93% 29.89 in - South 8.1 mph - N/A   Clear
10:50 AM 35.6 °F 29.2 °F 33.8 °F 93% 29.86 in 6.2 mi SSE 8.1 mph - N/A   Partly Cloudy
11:20 AM 35.6 °F 29.2 °F 33.8 °F 93% 29.83 in 6.2 mi SSE 8.1 mph - N/A   Partly Cloudy
11:50 AM 36 °F - 34 °F 90% 29.84 in 19 mi SE 8.1 mph - -   Overcast
11:50 AM 35.6 °F 29.2 °F 33.8 °F 93% 29.83 in 6.2 mi SSE 8.1 mph - N/A   Partly Cloudy
12:20 PM 37.4 °F 30.8 °F 33.8 °F 87% 29.80 in 6.2 mi SSE 9.2 mph - N/A   Partly Cloudy
12:50 PM 37.4 °F 32.1 °F 35.6 °F 93% 29.77 in 6.2 mi South 6.9 mph - N/A   Partly Cloudy
1:20 PM 39.2 °F 31.6 °F 35.6 °F 87% 29.77 in 6.2 mi South 12.7 mph - N/A   Partly Cloudy
1:50 PM 37.4 °F 29.8 °F 35.6 °F 93% 29.74 in 6.2 mi SSE 11.5 mph - N/A   Partly Cloudy
2:20 PM 41.0 °F 34.3 °F 37.4 °F 87% 29.71 in 6.2 mi SSW 11.5 mph - N/A   Scattered Clouds
2:50 PM 40 °F - 37 °F 83% 29.70 in 14 mi South 8.1 mph - - Rain Light Rain Showers
2:50 PM 41.0 °F 35.2 °F 37.4 °F 87% 29.68 in 6.2 mi SSW 9.2 mph - N/A Rain Light Rain
3:20 PM 41.0 °F 33.9 °F 37.4 °F 87% 29.65 in 6.2 mi SSW 12.7 mph - N/A Rain Light Rain
3:50 PM 41.0 °F 33.9 °F 37.4 °F 87% 29.62 in 6.2 mi South 12.7 mph - N/A Rain Light Rain
4:20 PM 39.2 °F 30.8 °F 37.4 °F 93% 29.59 in 6.2 mi South 15.0 mph - N/A Rain Light Rain
4:50 PM 39.2 °F 30.2 °F 37.4 °F 93% 29.56 in 6.2 mi South 17.3 mph - N/A Rain Light Rain
5:20 PM 39.2 °F 31.2 °F 37.4 °F 93% 29.53 in 6.2 mi South 13.8 mph - N/A Rain Light Rain
5:50 PM 38 °F - 38 °F 98% 29.51 in 14 mi SSE 11.5 mph - - Rain Light Rain
5:50 PM 39.2 °F 31.2 °F 37.4 °F 93% 29.50 in 6.2 mi South 13.8 mph - N/A Rain Light Rain
6:20 PM 39.2 °F 31.6 °F 39.2 °F 100% 29.47 in 6.2 mi South 12.7 mph - N/A Rain Rain
7:20 PM 39.2 °F 29.8 °F 39.2 °F 100% 29.42 in 6.2 mi South 18.4 mph - N/A Rain Rain
7:50 PM 42.8 °F 36.6 °F 41.0 °F 93% 29.42 in 6.2 mi SW 11.5 mph - N/A Rain Rain
8:20 PM 39.2 °F 32.0 °F 39.2 °F 100% 29.42 in 5.0 mi WNW 11.5 mph - N/A Rain Light Rain
8:50 PM 40 °F - 40 °F 100% 29.42 in 9 mi West 15.0 mph - - Rain Rain
8:50 PM 41.0 °F 33.9 °F 39.2 °F 93% 29.42 in 5.0 mi WNW 12.7 mph 26.5 mph N/A Rain Light Rain
11:50 PM 40 °F - 37 °F 85% 29.42 in 22 mi WNW 15.0 mph - - Rain Rain